Home > Weather > Winston-Salem > Past weeks

Flag for U.S.A. Weather for the Past 2 Weeks in Winston-Salem, North Carolina, U.S.A.

Now
44 °F

Clear.


Feels Like: 44 °F
Forecast: 28 / 48 °F
Wind: No wind

Location: Smith Reynolds Airport

Current Time: Feb 6, 2016 at 6:44:15 PM

Latest Report: Feb 6, 2016 at 5:54 PM


Visibility: 10 mi

Pressure: 30.30 "Hg

Humidity: 23%

Dew point: 8 °F

Location of Winston-SalemLocation

Historic Weather in Winston-Salem — Graph

°F

Winston-Salem Temperature Yesterday

Maximum temperature yesterday: 47 °F (at 3:54 PM)
Minimum temperature yesterday: 30 °F (at 11:54 PM)
Average temperature yesterday: 39 °F

High & Low Weather Summary for the Past Weeks

 TemperatureHumidityPressure
High69 °F (Feb 1, 4:54 PM)100% (Feb 2, 12:02 AM)30.46 "Hg (Feb 2, 12:02 AM)
Low22 °F (Jan 22, 6:54 PM)22% (Jan 24, 3:54 PM)29.57 "Hg (Jan 23, 4:01 AM)
Average44 °F61%30.05 "Hg
* Reported Jan 22 5:54 PM — Feb 6 5:54 PM, Winston-Salem, Weather by CustomWeather, © 2016

Note: Actual official high and low records may vary slightly from our data, if they occured in-between our weather recording intervals... More about our weather records

Advertising

Winston-Salem Weather History for the Previous 24 Hours

 ConditionsComfort  
Time TempWeatherWind HumidityBarometerVisibility
5:54 PM
Sat, Feb 6
44 °FClear.No wind23%30.30 "Hg10 mi
4:54 PM46 °FSunny.3 mph23%30.30 "Hg10 mi
3:54 PM46 °FSunny.6 mph23%30.31 "Hg10 mi
2:54 PM45 °FSunny.5 mph22%30.31 "Hg10 mi
1:54 PM44 °FSunny.5 mph27%30.33 "Hg10 mi
12:54 PM44 °FSunny.3 mph25%30.37 "Hg10 mi
11:54 AM42 °FSunny.3 mph33%30.42 "Hg10 mi
10:54 AM39 °FSunny.3 mph43%30.45 "Hg10 mi
9:54 AM36 °FSunny.5 mph44%30.46 "Hg10 mi
8:54 AM33 °FSunny.3 mph54%30.45 "Hg10 mi
7:54 AM28 °FSunny.No wind64%30.44 "Hg10 mi
6:54 AM26 °FClear.No wind69%30.43 "Hg10 mi
5:54 AM27 °FClear.No wind63%30.43 "Hg10 mi
4:54 AM28 °FClear.No wind64%30.42 "Hg10 mi
3:54 AM29 °FClear.No wind58%30.41 "Hg10 mi
2:54 AM28 °FClear.No wind66%30.41 "Hg10 mi
1:54 AM30 °FClear.3 mph51%30.40 "Hg10 mi
12:54 AM31 °FClear.No wind52%30.40 "Hg10 mi
11:54 PM
Fri, Feb 5
30 °FClear.No wind49%30.40 "Hg10 mi
10:54 PM33 °FClear.3 mph43%30.41 "Hg10 mi
9:54 PM34 °FClear.5 mph38%30.40 "Hg10 mi
8:54 PM36 °FClear.5 mph32%30.40 "Hg10 mi
7:54 PM37 °FClear.6 mph33%30.38 "Hg10 mi
6:54 PM38 °FClear.6 mph30%30.37 "Hg10 mi
Weather by CustomWeather, © 2016

See weather overviewHow to use our weather pages